www.pogodaiklimat.ru

Погода и климат >> Архив погоды >> Мексика >> Altar Son


ПОГОДА в Altar Son

  • Прогноз погоды в Altar Son
  • Монитор погоды в Altar Son
  • Климат города

АРХИВ ПОГОДЫ в Altar Son

Время (UTC), дата Ветер
(напр.,м/с)
 
Видим.   Явления Облачность Т
(С)
Тd
(С)
f
(%)
Тe
(С)
Тes
(С)
Комфортность P
(гПа)
Po
(гПа)
Тmin
(С)
Tmax
(С)
R
(мм)
R24
(мм)
S
(см)
18 11.10 Ю 1 30 км 10/0 2000 м
[Ac trans]
+26.2 +17.8 60 +31 +36 очень
душно
1008.2 963.1 +17.4 +26.5
21 11.10 Ю 1 30 км 10/0 2000 м
[Ac trans]
+27.0 +12.1 40 +35 +40 очень
душно
1008.0 964.0
00 12.10 З 2 30 км 10/0 2000 м
[Ac trans]
+29.0 +9.9 30 +29 +29 жарко 1007.5 964.0 +17.4 +29.5
03 12.10 С 2 20 км 10/0 2000 м
[Ac trans]
+26.0 +20.6 72 +32 +32 очень
душно
1006.0 963.0
12 12.10 СВ 1 20 км 10/0 2000 м
[]
+18.6 +18.6 100 +21 +21 комфорт 1006.9 961.3 +18.5 +29.5
15 12.10 СВ 1 30 км слабая морось 10/0 1500 м
[Ac trans]
+19.0 +19.0 100 +22 +22 комфорт 1006.9 961.6 5
18 12.10 В 1 30 км слабая морось 10/0 1500 м
[Ac trans]
+20.2 +19.3 95 +25 +30 комфорт 1006.2 960.9 7
12 13.10 СВ 1 20 км ясно +20.0 +15.8 77 +24 +24 комфорт 1006.8 961.5 +19.5 +23.8
15 13.10 СВ 1 30 км слабая морось 10/0 1500 м
[Ac trans]
+23.0 +17.6 72 +28 +29 душно 1007.3 962.1 3
18 13.10 ЮЗ 1 30 км слабая морось 10/0 2000 м
[Ac trans]
+19.0 +10.9 59 +21 +26 комфорт 1008.8 963.6 15
12 14.10 СВ 1 20 км ясно +15.0 +1.6 40 +16 +16 1013.2 967.0 +14.5 +22.5
15 14.10 В 1 30 км ясно +16.0 +8.3 60 +17 +18 1012.5 957.5
18 14.10 ЮВ 1 30 км ясно +20.0 +18.0 88 +24 +37 комфорт 1012.0 956.4 +14.5 +20.5
12 15.10 СВ 1 20 км ясно +16.0 +8.3 60 +17 +17 1011.0 965.2 +15.5
15 15.10 В 1 30 км ясно +16.2 +7.6 57 +17 +19 1010.5 965.0
18 15.10 Ю 1 30 км ясно +21.0 +12.5 58 +22 +34 комфорт 1009.0 965.0 +15.5 +21.5
21 15.10 З 3 30 км 5/0 2000 м
[Ac trans]
+26.0 +16.5 56 +30 +36 душно 1008.7 964.3
00 16.10 ЮЗ 2 30 км ясно +25.4 +12.9 46 +27 +28 жарко 1008.6 964.1 +16.0 +27.0
03 16.10 ЮЗ 2 10 км ясно +20.5 +11.7 57 +23 +23 комфорт 1009.8 964.6
12 16.10 СЗ 1 10 км ясно +13.2 +10.1 81 +13 +13 1012.5 966.0 +13.0 +27.0
15 16.10 СВ 1 30 км ясно +14.2 +11.6 84 +15 +16 1012.5 966.2
18 16.10 З 1 30 км ясно +21.4 +13.2 60 +24 +36 комфорт 1012.5 967.3 +12.4 +21.6
21 16.10 ЮЗ 1 30 км ясно +24.2 +12.2 47 +26 +38 жарко 1009.8 964.8
00 17.10 ЮЗ 1 30 км ясно +24.8 +13.0 48 +27 +28 жарко 1009.9 964.9 +12.4 +25.5
03 17.10 С 1 20 км ясно +20.4 +13.8 66 +24 +24 комфорт 1010.8 965.8
12 17.10 С 1 20 км ясно +14.2 +10.8 80 +15 +15 1012.7 966.4 +14.0 +25.5
15 17.10 СВ 1 30 км ясно +15.6 +12.7 83 +16 +18 1013.9 967.5
18 17.10 С 1 30 км ясно +22.6 +13.9 58 +26 +38 жарко 1013.8 967.3 +13.2 +23.0
21 17.10 З 2 30 км ясно +25.8 +12.6 44 +28 +38 жарко 1011.6 967.1
00 18.10 ЮЗ 3 30 км ясно +26.4 +13.8 46 +29 +29 жарко 1010.3 965.9 +13.2 +26.8
03 18.10 ЮЗ 1 10 км ясно +20.6 +12.4 59 +24 +24 комфорт 1011.7 966.4
12 18.10 СВ 1 20 км ясно +14.2 +10.8 80 +15 +15 1012.8 966.5 +14.0 +26.8

 

Местоположение метеостанции Altar Son (Мексика): широта 30.71 долгота -111.84 высота над уровнем моря 397 м.

В архиве по умолчанию представлена погода в Altar Son за последнюю неделю. Архивные данные за месяц целиком и за предыдущие месяцы, начиная с января 2011 года, Вы можете получить, выбрав интересующий диапазон дат из раскрывающегося списка и нажав кнопку "Ввод!".


*Определитесь, кто Вы:
робот инопланетянин человек

Внимание! Время в таблицах - всемирное. Для получения местного времени необходимо прибавить поправку, которая в Altar Son равна -8 ч.

Смотрите также архив погоды в соседних городах и на ближайших метеорологических станциях:

Погода в Puerto Penasco (Мексика) (176 км)
Погода в Hermosillo (Мексика) (196 км)
Погода в Hermosillo la Magna (Мексика) (201 км)
Погода в Pilares de Nacoz (Мексика) (210 км)
Погода в San Felipe (Мексика) (285 км)
Погода в Guaymas (Мексика) (324 км)
Погода в Empalme (Мексика) (326 км)
Погода в Ejido Nuevo Leon (Мексика) (362 км)
Погода в Nueva Casas Grandes (Мексика) (379 км)
Погода в Santa Rosalia (Мексика) (384 км)

Пояснения к столбцам:

Ветер - указаны скорость ветра в м/с - средняя за 10 мин, порывы в срок и между сроками (в фигурных скобках) и направление, откуда дует ветер: С - северный, СВ - северо-восточный, В - восточный, ЮВ - юго-восточный, Ю - южный, ЮЗ - юго-западный, З - западный, СЗ - северо-западный.
Видимость - горизонтальная дальность видимости в метрах или километрах. При видимости от 1 до 10 км при отсутствии осадков обычно наблюдается дымка, при ухудшении видимости до 1 км и менее - туман. В сухую погоду видимость может ухудшаться дымом, пылью или мглою.
Явления - указаны атмосферные явления, наблюдавшиеся в срок или в последний час перед сроком; фигурными скобками обозначены явления, наблюдавшиеся между сроками (за 1-3 часа до срока); квадратными скобками обозначены град или гололедные отложения с указанием их диаметра в мм.
Облачность - указаны через наклонную черту общая и нижняя облачность в баллах и высота нижней границы облаков в метрах; квадратными скобками обозначены формы облаков: Ci - перистые, Cs - перисто-слоистые, Cc - перисто-кучевые, Ac - высококучевые, As - высокослоистые, Sc - слоисто-кучевые, Ns - слоисто-дождевые, Cu - кучевые, Cb - кучево-дождевые. Подробнее классификацию облаков см. в Атласе облаков (PDF).
T - Температура воздуха - температура, измеренная на высоте 2 м над землей.
Td - Температура точки росы - температура, при понижении до которой содержащийся в воздухе водяной пар достигнет насыщения.
f - Относительная влажность воздуха - влажноcть воздуха, измеренная на высоте 2 м над землей.
Te - Эффективная температура - температура, которую ощущает одетый по сезону человек в тени. Характеристика душности погоды. При расчете учитывается влияние влажности воздуха и скорости ветра на теплоощущения человека.
Tes - Эффективная температура на солнце - температура, которую ощущает человек, с поправкой на солнечный нагрев. Характеристика знойности погоды. Зависит от высоты солнца над горизонтом, облачности и скорости ветра. Ночью, в пасмурную погоду, а также при ветре 12 м/с и более поправка равна нулю.
P - Атмосферное давление - приведенное к уровню моря атмосферное давление.
Po - Атмосферное давление - измеренное на уровне метеостанции атмосферное давление.
Tmin - Минимальная температура - минимум температуры воздуха на высоте 2 м над землей.
Tmax - Максимальная температура - максимум температуры воздуха на высоте 2 м над землей.
R - Количество осадков - Количество выпавших осадков за период времени, мм. При наведении курсора мыши на число - период времени, за который выпало указанное количество осадков.
R24 - Количество осадков - Количество выпавших осадков за 24 часа, мм.
S - Снежный покров - Высота снежного покрова, см. При наведении курсора мыши на число - состояние снежного покрова и степень покрытия местности в баллах.